Wind_Speed
7 6 6 6 6 6 6 7 7 7 8 9 9 10 11 12 12 13 13 13 12 12 12 12 12 12 12 12 13 13 14 14 15 16 16 17 17 17 18 18 19 19 19
6 6 6 6 6 6 6 7 8 8 9 10 10 11 12 12 12 12 12 13 12 12 13 13 13 12 13 13 13 13 14 14 15 16 16 17 18 18 19 20 20 21 21
5 5 6 6 6 7 7 8 9 9 10 11 11 12 12 12 12 12 12 12 12 12 13 13 13 13 13 14 14 15 16 16 16 17 18 18 19 20 20 21 21 22 22
5 6 6 7 7 8 9 9 10 10 11 12 12 12 12 12 12 12 12 12 12 12 12 13 13 13 14 14 15 16 17 17 18 19 20 20 21 22 22 23 23 24 24
7 7 8 9 9 9 10 10 10 11 12 12 13 12 12 12 12 12 12 12 12 12 13 13 14 14 14 15 15 16 17 18 19 20 21 22 23 24 25 26 26 27 27
9 9 10 11 11 11 11 11 11 12 12 12 12 12 12 12 11 12 12 12 12 13 13 14 14 15 15 16 16 17 18 18 19 20 21 22 23 25 26 27 28 29 30
12 12 12 12 12 12 12 12 12 12 12 12 12 12 12 12 12 12 12 12 13 13 14 14 15 15 16 17 17 18 19 19 20 21 22 22 23 25 26 27 28 29 30
14 14 13 13 13 13 13 13 13 13 13 12 12 12 12 12 12 13 13 13 13 14 14 14 15 16 16 17 18 19 20 21 22 23 23 24 25 26 26 27 28 29 30
15 15 14 14 14 14 14 14 14 14 13 13 13 13 13 13 13 13 13 13 13 14 14 15 16 16 17 18 19 20 20 21 22 23 24 26 27 28 29 29 30 30 31
16 16 15 15 15 15 15 15 15 14 14 14 14 14 14 14 14 14 14 14 14 15 16 16 17 18 18 19 20 20 21 22 23 24 25 26 27 29 30 31 32 33 33
16 16 16 16 16 16 16 16 16 15 15 15 15 15 15 15 15 16 16 16 17 17 18 19 19 20 20 21 22 22 23 24 25 25 26 27 28 29 31 32 33 34 35
16 17 17 17 17 17 17 17 17 17 17 17 17 17 18 18 18 18 19 19 20 20 21 22 22 23 24 24 25 26 26 27 27 28 29 29 30 31 32 33 34 36 37
16 18 18 18 18 18 18 18 19 19 19 20 20 20 20 21 21 22 22 23 23 24 24 25 26 27 27 28 28 29 29 30 31 32 32 33 33 34 35 36 36 37 38
17 18 19 19 19 19 20 20 21 21 22 23 23 23 23 24 25 25 25 26 27 27 28 29 29 30 31 31 32 32 33 34 34 35 36 36 37 38 38 39 40 40 41
19 19 20 20 21 22 22 23 24 25 25 26 26 26 27 28 29 29 29 30 31 31 32 32 33 34 34 35 35 36 37 37 38 39 39 40 41 41 42 43 43 44 44
21 21 21 22 23 24 25 26 27 28 28 29 30 30 31 32 33 33 34 34 35 36 36 36 37 38 39 39 39 40 40 41 41 42 43 44 44 45 46 46 47 47 47
22 23 23 24 25 26 27 29 30 31 32 32 33 34 35 35 36 37 38 39 40 40 40 40 41 42 42 43 43 44 44 45 45 46 46 47 48 48 49 50 50 51 51
23 24 25 26 27 28 29 31 32 33 34 35 36 37 38 39 40 41 42 43 44 44 44 44 45 45 46 46 47 48 48 48 49 49 49 50 51 52 52 53 53 54 54
24 25 26 28 29 30 31 32 34 35 36 38 39 40 41 43 44 45 45 46 47 48 48 48 49 50 50 50 51 51 51 51 52 52 52 53 54 54 55 55 56 56 57
24 25 26 28 30 32 33 34 35 36 37 39 40 42 43 44 46 47 48 49 50 51 51 52 53 53 54 54 55 55 55 55 55 55 55 56 56 56 57 57 58 59 59
24 26 27 28 30 32 34 35 36 37 38 39 41 42 44 45 47 49 50 52 53 54 55 55 56 56 57 58 59 58 58 58 57 57 58 58 58 59 59 60 61 61 61
25 27 28 29 31 33 35 37 38 39 39 40 41 43 45 48 50 52 53 54 56 57 57 58 59 60 60 62 62 62 61 60 59 59 60 59 60 61 61 62 62 62 62
27 28 29 30 32 33 35 37 38 40 41 42 44 46 48 50 52 53 55 56 58 59 60 61 62 62 63 64 65 65 65 63 62 61 60 60 61 61 62 62 62 61 62
28 29 30 31 32 34 35 37 39 41 42 44 47 48 50 52 54 56 57 59 60 61 62 63 64 65 66 66 67 67 67 67 67 64 61 61 61 61 61 62 62 62 61
29 31 32 33 34 35 37 39 40 42 43 45 47 49 51 54 56 57 59 61 62 64 65 66 67 68 69 69 69 69 69 68 68 67 65 63 62 61 62 62 62 61 61
30 31 33 34 35 36 37 39 40 42 43 45 47 49 52 54 57 59 61 63 64 65 66 67 68 69 69 70 70 70 69 69 68 68 68 65 64 63 63 62 61 61 60
Wind_Direction
226 226 230 234 240 249 257 262 265 267 270 274 276 279 280 281 280 279 277 277 276 275 275 274 274 273 271 268 265 263 261 260 259 258 257 256 255 253 252 251 250 250 249
215 219 224 232 242 252 260 266 270 273 275 278 281 282 283 282 281 280 279 278 277 276 276 276 275 274 273 272 271 268 266 263 261 259 259 259 258 256 255 254 253 252 251
218 228 234 242 250 258 266 271 274 276 279 282 283 284 284 284 283 282 281 280 279 279 278 278 277 276 275 274 273 272 270 268 265 263 261 260 259 258 257 256 256 255 254
241 247 252 257 262 266 270 273 276 278 281 283 285 285 285 285 284 284 283 283 283 283 283 283 283 281 280 278 277 275 273 271 269 267 265 264 262 261 260 259 258 257 256
258 261 264 268 270 272 273 275 278 280 282 283 283 284 284 284 285 284 284 285 286 287 287 286 286 285 284 283 281 279 277 275 272 270 269 267 265 264 263 261 260 259 258
269 269 271 272 273 274 275 276 278 280 281 282 282 282 282 283 284 285 286 287 289 289 289 289 289 288 288 286 285 283 281 279 277 275 272 270 269 267 266 264 263 262 261
273 273 274 274 275 275 276 277 278 279 280 280 279 279 281 282 283 284 286 288 290 291 292 292 292 292 291 290 289 287 285 283 281 278 276 274 272 270 268 267 266 265 264
274 274 274 275 275 276 276 276 276 277 278 278 277 277 278 279 281 283 286 287 290 292 293 294 295 295 295 294 293 291 289 287 284 282 280 278 276 274 272 270 269 267 266
275 276 275 274 274 274 275 275 274 274 275 275 274 274 275 277 279 282 284 286 289 292 294 295 297 298 299 298 298 296 294 292 290 288 285 283 280 278 276 274 272 270 269
273 274 273 271 270 271 272 272 271 271 272 272 272 272 273 275 278 280 282 285 288 290 293 295 297 299 299 300 300 300 299 297 295 293 291 288 285 282 280 277 275 273 271
271 272 271 268 268 268 269 268 267 268 269 269 269 270 272 275 277 280 282 285 287 290 292 295 296 297 298 299 299 299 299 298 298 297 295 292 290 288 285 282 280 277 275
271 271 270 268 267 267 267 266 266 266 267 268 268 269 271 274 276 279 282 284 287 289 291 292 294 294 295 296 297 297 297 296 296 296 295 294 293 291 289 287 285 282 280
272 270 269 270 269 267 266 265 265 266 266 267 267 268 270 273 276 278 280 283 285 287 289 290 291 292 293 294 294 294 294 294 294 293 293 293 293 292 291 289 288 286 283
275 272 272 271 270 268 267 266 266 266 266 266 267 268 269 272 274 276 278 281 283 285 287 288 289 290 291 291 292 292 292 292 292 291 291 291 291 291 290 289 288 287 285
276 274 273 273 271 270 268 267 266 266 267 268 268 268 270 271 273 275 277 279 281 283 285 286 287 288 289 289 290 290 290 291 291 290 290 290 290 290 289 289 288 287 286
275 273 271 270 269 269 268 267 267 268 268 269 269 269 270 271 273 275 276 278 280 281 283 284 285 286 287 287 288 288 289 289 289 289 289 289 289 288 288 288 288 287 286
276 274 272 270 269 268 268 268 268 269 270 270 270 270 271 271 272 273 275 277 278 280 281 282 283 284 285 285 286 286 287 288 288 288 288 288 287 287 287 287 287 287 286
278 277 274 273 271 269 268 268 268 269 270 270 270 271 271 271 272 273 274 275 277 279 280 281 281 282 283 283 284 285 286 286 286 287 287 286 286 286 286 286 286 286 285
280 279 278 276 274 272 271 270 270 270 270 270 270 271 272 272 273 274 274 275 276 277 278 279 280 281 281 282 282 283 284 285 285 286 286 285 285 286 286 285 285 285 285
283 281 280 279 277 276 274 273 272 271 271 271 272 273 274 275 275 275 275 275 276 276 277 277 278 280 281 281 281 282 283 284 284 285 285 284 285 285 285 284 284 284 284
286 284 282 281 279 278 277 276 275 274 274 274 275 275 275 275 275 275 275 275 276 277 277 278 279 280 280 281 281 282 282 283 284 284 284 285 285 285 284 284 284 284 283
288 287 285 284 282 281 280 279 278 277 276 276 276 275 274 274 274 276 277 277 278 278 279 279 280 280 280 281 282 282 283 283 284 284 284 285 285 285 284 284 284 283 282
290 289 287 286 284 283 282 281 281 280 279 278 277 276 276 276 277 278 278 278 278 279 279 280 280 280 281 281 282 283 283 283 282 283 283 283 283 284 284 283 283 282 282
294 293 291 289 288 286 285 284 283 282 281 279 278 278 278 278 278 278 278 278 278 279 279 279 279 280 280 281 281 282 283 283 283 283 282 282 282 282 282 282 281 281 281
297 296 294 293 292 290 289 287 286 285 283 282 281 280 280 279 279 279 279 278 278 278 278 278 278 279 279 280 281 281 282 282 283 284 283 282 281 280 280 281 280 280 280
299 298 298 298 297 295 294 292 290 289 288 286 285 284 282 281 281 280 279 279 279 278 278 278 278 278 279 279 280 281 281 282 282 282 283 283 281 280 280 280 280 280 280
Height
5874 5874 5875 5875 5875 5875 5875 5875 5875 5875 5875 5875 5875 5875 5875 5874 5874 5874 5873 5873 5873 5872 5872 5872 5871 5871 5871 5871 5871 5871 5871 5871 5871 5872 5872 5872 5872 5873 5873 5874 5874 5875 5875
5874 5874 5874 5874 5874 5874 5873 5873 5873 5873 5873 5873 5873 5873 5872 5872 5872 5871 5871 5870 5870 5870 5869 5869 5869 5869 5868 5868 5868 5868 5868 5868 5868 5868 5869 5869 5869 5869 5870 5870 5870 5871 5871
5873 5873 5873 5873 5873 5872 5872 5872 5872 5872 5871 5871 5871 5870 5870 5870 5869 5869 5868 5868 5868 5867 5867 5866 5866 5866 5866 5866 5865 5865 5865 5865 5865 5865 5865 5865 5866 5866 5866 5866 5866 5867 5867
5872 5872 5872 5872 5871 5871 5871 5870 5870 5870 5869 5869 5869 5868 5868 5867 5867 5867 5866 5866 5865 5865 5864 5863 5863 5863 5863 5862 5862 5862 5862 5862 5861 5862 5862 5862 5862 5862 5862 5862 5862 5863 5863
5871 5871 5871 5870 5870 5869 5869 5868 5868 5868 5867 5867 5866 5866 5865 5865 5865 5864 5864 5863 5862 5862 5861 5861 5860 5860 5859 5859 5859 5858 5858 5858 5858 5858 5858 5857 5857 5857 5857 5857 5858 5858 5858
5869 5869 5869 5868 5868 5867 5867 5866 5866 5866 5865 5865 5864 5864 5863 5863 5862 5862 5861 5860 5860 5859 5859 5858 5857 5857 5856 5856 5855 5855 5854 5854 5854 5853 5853 5853 5853 5852 5852 5852 5852 5852 5853
5867 5867 5866 5866 5865 5865 5864 5864 5864 5863 5863 5862 5862 5861 5861 5860 5860 5859 5859 5858 5857 5856 5856 5855 5854 5854 5853 5852 5851 5851 5850 5850 5849 5849 5849 5848 5848 5847 5847 5847 5847 5847 5847
5864 5864 5863 5863 5862 5862 5862 5861 5861 5861 5860 5860 5859 5859 5858 5858 5857 5857 5856 5855 5854 5853 5853 5852 5851 5850 5849 5848 5847 5847 5846 5845 5845 5844 5844 5843 5842 5842 5841 5841 5841 5841 5840
5861 5860 5860 5860 5859 5859 5859 5858 5858 5858 5857 5857 5856 5856 5856 5855 5854 5854 5853 5852 5851 5850 5849 5848 5847 5846 5845 5844 5843 5842 5841 5840 5839 5839 5838 5837 5836 5836 5835 5835 5834 5834 5834
5857 5857 5857 5856 5856 5856 5855 5855 5855 5854 5854 5854 5853 5853 5852 5852 5851 5850 5849 5849 5848 5847 5845 5844 5843 5842 5841 5840 5839 5837 5836 5835 5834 5833 5832 5831 5830 5829 5828 5828 5827 5827 5826
5854 5853 5853 5852 5852 5852 5851 5851 5851 5851 5850 5850 5850 5849 5849 5848 5847 5846 5846 5845 5844 5842 5841 5840 5839 5837 5836 5835 5834 5832 5831 5830 5828 5827 5826 5825 5823 5822 5821 5820 5820 5819 5818
5851 5849 5849 5848 5848 5848 5847 5847 5847 5847 5846 5846 5846 5845 5845 5844 5843 5842 5841 5840 5839 5838 5836 5835 5834 5832 5831 5830 5828 5827 5825 5824 5822 5821 5819 5818 5817 5815 5814 5813 5812 5811 5810
5847 5846 5845 5844 5844 5844 5843 5843 5843 5842 5842 5841 5841 5840 5840 5839 5838 5837 5836 5835 5834 5833 5831 5830 5828 5827 5825 5824 5822 5821 5819 5817 5816 5814 5812 5811 5809 5808 5806 5805 5804 5802 5801
5843 5842 5841 5840 5840 5839 5839 5838 5838 5837 5837 5836 5836 5835 5834 5833 5833 5832 5831 5829 5828 5827 5825 5824 5822 5820 5819 5817 5815 5814 5812 5810 5808 5806 5805 5803 5801 5799 5798 5796 5795 5793 5792
5838 5837 5836 5836 5835 5834 5834 5833 5833 5832 5831 5831 5830 5829 5828 5827 5826 5825 5824 5823 5821 5820 5818 5816 5815 5813 5811 5809 5808 5806 5804 5802 5800 5798 5796 5794 5792 5790 5788 5787 5785 5783 5782
5832 5831 5831 5830 5829 5829 5828 5827 5826 5826 5825 5824 5824 5823 5822 5820 5819 5818 5816 5815 5813 5812 5810 5809 5807 5805 5803 5801 5799 5797 5795 5793 5791 5789 5787 5785 5783 5780 5778 5776 5774 5773 5771
5826 5825 5825 5824 5824 5823 5822 5821 5820 5819 5818 5817 5816 5815 5814 5813 5811 5810 5808 5806 5804 5803 5802 5800 5798 5796 5793 5791 5789 5787 5785 5783 5781 5779 5777 5774 5772 5770 5768 5765 5763 5761 5759
5820 5819 5818 5818 5817 5816 5815 5814 5813 5812 5811 5810 5808 5807 5806 5804 5803 5801 5800 5797 5795 5793 5792 5790 5788 5786 5783 5781 5779 5777 5775 5773 5770 5768 5766 5763 5760 5758 5756 5754 5751 5749 5747
5814 5813 5811 5810 5809 5808 5808 5807 5806 5805 5803 5801 5799 5798 5796 5794 5792 5791 5789 5787 5785 5783 5781 5779 5777 5774 5772 5770 5767 5766 5764 5762 5759 5757 5754 5751 5749 5746 5743 5741 5738 5736 5733
5809 5807 5805 5803 5802 5800 5799 5799 5798 5796 5795 5793 5791 5789 5787 5785 5782 5780 5778 5776 5773 5772 5770 5767 5765 5762 5761 5757 5755 5754 5752 5749 5747 5745 5741 5738 5736 5733 5730 5727 5724 5722 5719
5803 5801 5799 5797 5795 5792 5791 5789 5788 5787 5786 5784 5782 5780 5778 5775 5772 5769 5767 5765 5762 5760 5758 5755 5753 5750 5748 5743 5741 5741 5739 5737 5735 5731 5727 5725 5722 5719 5716 5713 5710 5707 5704
5796 5794 5792 5790 5788 5785 5783 5781 5779 5777 5776 5774 5772 5769 5766 5763 5760 5758 5756 5753 5750 5747 5745 5742 5739 5736 5734 5730 5727 5724 5724 5725 5721 5717 5714 5711 5708 5704 5701 5697 5694 5691 5688
5790 5787 5785 5782 5780 5777 5775 5772 5770 5767 5766 5763 5760 5757 5755 5752 5749 5746 5744 5740 5737 5734 5732 5729 5725 5722 5719 5716 5712 5709 5707 5708 5706 5705 5701 5697 5693 5689 5685 5681 5678 5675 5672
5782 5779 5777 5774 5771 5768 5766 5763 5760 5758 5755 5752 5749 5747 5743 5740 5737 5734 5730 5727 5724 5720 5717 5714 5710 5707 5703 5701 5697 5694 5691 5688 5686 5686 5687 5683 5678 5674 5670 5666 5662 5659 5656
5774 5771 5768 5765 5762 5759 5757 5754 5750 5747 5744 5741 5738 5735 5731 5727 5724 5720 5717 5713 5709 5705 5702 5698 5694 5691 5687 5684 5681 5678 5675 5672 5668 5665 5666 5666 5662 5658 5654 5650 5646 5643 5640
5765 5762 5759 5756 5753 5750 5746 5743 5740 5736 5733 5730 5726 5722 5718 5714 5710 5706 5701 5697 5693 5690 5686 5682 5678 5674 5671 5668 5664 5661 5657 5655 5652 5647 5645 5645 5643 5641 5636 5633 5630 5627 5623